sat.trackr.live / text

‹ back to catalog

ASBM-2

NORAD 60423 · 2024-143B

PAYLOAD ACTIVE UNKNOWN

§ Identity

Operator
Country
NOR
Launch date
2024-08-12
Launch site
AFWTR
Launch vehicle
Mass (kg)
RCS (m²)

External: N2YO · Heavens-Above · Gunter

§ Orbital elements

Epoch: 2026-09-15T13:47:03.350976Z

Period
957.28 min
Inclination
62.8936°
Eccentricity
0.5640686
Mean motion
1.50425879 rev/d
Perigee alt
7,648.0 km
Apogee alt
43,946.0 km
Semi-major
32,175.1 km
B*
0.0000e+0
RAAN
41.9938°
Arg perigee
269.4595°
Mean anomaly
29.3828°
Rev number
1,296

§ Raw data

ASBM-21 60423U 24143B   26258.57434434 -.00000072  00000+0  00000+0 0  99942 60423  62.8936  41.9938 5640686 269.4595  29.3828  1.50425879 12961

JSON: /api/v1/satellites/60423 · /tle

For live sub-satellite position, see the globe view (requires WebGL).

§ Visibility from observer

Set your observer location to see the next 7 days of passes ≥ 10°. The values pass through the URL so the page stays shareable.

No JS? Fill the form by hand. The geolocation button needs JavaScript.